CW7427 Weather Reports


Display with metric or nautical units.
time (UTC)temp
F
wind
direction
speed
MPH
gust
MPH
rain 1hr
in
rain 24hr
in
rain mn
in
humidity
%
barometer
mb
20260508094738 57 246 0.0 0.0 0.00 0.00 0.00 68 1018.9
20260508094228 57 246 0.0 0.0 0.00 0.00 0.00 68 1018.8
20260508093718 57 246 0.0 0.0 0.00 0.00 0.00 68 1018.8
20260508093218 57 246 0.0 0.0 0.00 0.00 0.00 68 1018.7
20260508092642 58 246 0.0 0.0 0.00 0.00 0.00 67 1018.7
20260508092143 58 246 0.0 0.0 0.00 0.00 0.00 66 1018.7
20260508091642 58 246 0.0 0.0 0.00 0.00 0.00 66 1018.7
20260508091132 58 246 0.0 1.0 0.00 0.00 0.00 66 1018.7
20260508090628 58 246 0.0 1.0 0.00 0.00 0.00 66 1018.6
20260508090118 58 246 0.0 1.0 0.00 0.00 0.00 65 1018.5
20260508085542 58 246 0.0 1.0 0.00 0.00 0.00 65 1018.4
20260508085042 58 246 0.0 1.0 0.00 0.00 0.00 65 1018.3
20260508084534 58 246 0.0 0.0 0.00 0.00 0.00 64 1018.3
20260508084017 59 246 0.0 1.0 0.00 0.00 0.00 64 1018.2
20260508083508 59 246 0.0 1.0 0.00 0.00 0.00 63 1018.2
20260508083003 59 246 0.0 0.0 0.00 0.00 0.00 63 1018.2
20260508082500 59 246 0.0 0.0 0.00 0.00 0.00 63 1018.1
20260508081937 59 246 0.0 0.0 0.00 0.00 0.00 63 1018.0
20260508081436 59 246 0.0 0.0 0.00 0.00 0.00 62 1017.9
20260508080938 60 246 0.0 0.0 0.00 0.00 0.00 61 1017.9
20260508080412 60 246 0.0 0.0 0.00 0.00 0.00 61 1017.7
20260508075850 60 246 0.0 1.0 0.00 0.00 0.00 60 1017.6
20260508075828 61 246 0.0 1.0 0.00 0.00 0.00 59 1017.6
20260508075106 61 246 0.0 2.0 0.00 0.00 0.00 58 1017.5
20260508074320 61 246 0.0 4.0 0.00 0.00 0.00 58 1017.4
20260508073814 62 246 0.0 4.0 0.00 0.00 0.00 57 1017.3
20260508073528 62 249 0.0 4.0 0.00 0.00 0.00 57 1017.1
20260508072754 62 250 0.0 4.0 0.00 0.00 0.00 57 1016.9
20260508072244 62 250 0.0 2.0 0.00 0.00 0.00 57 1016.8
20260508071737 62 250 0.0 2.0 0.00 0.00 0.00 56 1016.7
20260508071228 63 250 0.0 2.0 0.00 0.00 0.00 55 1016.5
20260508070718 63 251 0.0 2.0 0.00 0.00 0.00 54 1016.4
20260508070208 63 245 0.0 5.0 0.00 0.00 0.00 54 1016.3
20260508065704 63 246 0.0 5.0 0.00 0.00 0.00 53 1016.2
20260508065406 63 293 0.0 4.0 0.00 0.00 0.00 53 1016.2
20260508064642 64 232 0.0 5.0 0.00 0.00 0.00 53 1015.9
20260508064136 64 232 0.0 5.0 0.00 0.00 0.00 52 1015.9
20260508063631 64 240 0.0 5.0 0.00 0.00 0.00 51 1015.7
20260508063559 65 182 0.0 1.0 0.00 0.00 0.00 51 1015.8
20260508062609 65 182 0.0 1.0 0.00 0.00 0.00 51 1015.7
20260508062100 65 182 0.0 2.0 0.00 0.00 0.00 50 1015.6
20260508061550 65 182 0.0 4.0 0.00 0.00 0.00 50 1015.6
20260508061041 65 179 0.0 5.0 0.00 0.00 0.00 49 1015.4
20260508060537 66 244 0.0 5.0 0.00 0.00 0.00 48 1015.4
20260508060523 66 230 0.0 3.0 0.00 0.00 0.00 47 1015.1
20260508055801 66 229 1.0 6.0 0.00 0.00 0.00 47 1015.1
20260508055038 67 229 1.0 6.0 0.00 0.00 0.00 46 1015.1
20260508054531 67 239 0.0 8.0 0.00 0.00 0.00 47 1015.0
20260508054034 67 234 1.0 8.0 0.00 0.00 0.00 47 1015.0
20260508053525 67 246 0.0 4.0 0.00 0.00 0.00 46 1015.0
20260508053249 67 293 0.0 3.0 0.00 0.00 0.00 45 1014.8
20260508053010 67 294 0.0 5.0 0.00 0.00 0.00 46 1014.8
20260508052506 67 288 0.0 2.0 0.00 0.00 0.00 45 1014.7
20260508051515 67 252 0.0 4.0 0.00 0.00 0.00 45 1014.7
20260508051013 67 252 0.0 4.0 0.00 0.00 0.00 45 1014.7
20260508050505 67 273 0.0 4.0 0.00 0.00 0.00 46 1014.7
20260508045952 68 294 0.0 4.0 0.00 0.00 0.00 44 1014.8
20260508045454 68 300 0.0 3.0 0.00 0.00 0.00 45 1014.6
20260508044939 68 224 0.0 8.0 0.00 0.00 0.00 45 1014.6
20260508044429 68 226 0.0 8.0 0.00 0.00 0.00 44 1014.5
20260508043930 68 233 0.0 5.0 0.00 0.00 0.00 45 1014.4
20260508043422 68 233 0.0 5.0 0.00 0.00 0.00 44 1014.4
20260508043413 68 228 1.0 8.0 0.00 0.00 0.00 45 1014.4
20260508042408 68 232 1.0 8.0 0.00 0.00 0.00 45 1014.3
20260508042357 68 309 1.0 6.0 0.00 0.00 0.00 44 1014.3
20260508041637 68 216 1.0 6.0 0.00 0.00 0.00 44 1014.3
20260508041136 68 234 0.0 4.0 0.00 0.00 0.00 44 1014.4
20260508040358 68 256 0.0 5.0 0.00 0.00 0.00 45 1014.4
20260508035841 68 258 0.0 4.0 0.00 0.00 0.00 44 1014.4
20260508035332 68 292 0.0 3.0 0.00 0.00 0.00 44 1014.4
20260508035056 68 299 0.0 5.0 0.00 0.00 0.00 44 1014.4
20260508034317 68 299 1.0 5.0 0.00 0.00 0.00 43 1014.4
20260508033807 68 240 0.0 2.0 0.00 0.00 0.00 44 1014.5
20260508033258 68 243 0.0 2.0 0.00 0.00 0.00 44 1014.5
20260508032752 68 243 0.0 4.0 0.00 0.00 0.00 44 1014.4
20260508032245 68 232 0.0 4.0 0.00 0.00 0.00 44 1014.5
20260508031736 68 228 1.0 8.0 0.00 0.00 0.00 44 1014.6
20260508031228 68 229 1.0 8.0 0.00 0.00 0.00 44 1014.6
20260508030720 68 231 1.0 6.0 0.00 0.00 0.00 43 1014.6
20260508030209 68 224 1.0 6.0 0.00 0.00 0.00 43 1014.8
20260508025659 68 229 0.0 7.0 0.00 0.00 0.00 44 1014.8
20260508025149 68 229 1.0 7.0 0.00 0.00 0.00 43 1014.8
20260508024639 68 187 1.0 5.0 0.00 0.00 0.00 43 1014.8
20260508024612 68 184 1.0 5.0 0.00 0.00 0.00 43 1014.8
20260508023623 69 171 0.0 5.0 0.00 0.00 0.00 44 1014.8
20260508023109 69 170 0.0 5.0 0.00 0.00 0.00 47 1014.9
20260508022559 68 130 0.0 2.0 0.00 0.00 0.00 45 1015.0
20260508022053 68 130 0.0 2.0 0.00 0.00 0.00 46 1015.1
20260508021543 68 130 0.0 4.0 0.00 0.00 0.00 47 1015.2
20260508021041 68 130 0.0 4.0 0.00 0.00 0.00 46 1015.2
20260508020531 68 127 0.0 3.0 0.00 0.00 0.00 45 1015.3
20260508020025 68 127 0.0 3.0 0.00 0.00 0.00 46 1015.4
20260508015518 68 129 0.0 2.0 0.00 0.00 0.00 47 1015.4
20260508015009 67 129 0.0 2.0 0.00 0.00 0.00 49 1015.5
20260508014459 67 130 0.0 2.0 0.00 0.00 0.00 47 1015.5
20260508013953 67 130 0.0 5.0 0.00 0.00 0.00 47 1015.6
20260508013447 67 130 1.0 5.0 0.00 0.00 0.00 47 1015.5
20260508012937 67 227 0.0 5.0 0.00 0.00 0.00 46 1015.8
20260508012437 66 290 0.0 2.0 0.00 0.00 0.00 49 1015.8
20260508011922 66 292 0.0 4.0 0.00 0.00 0.00 48 1016.0
20260508011412 66 292 0.0 4.0 0.00 0.00 0.00 48 1016.2
20260508010901 66 248 0.0 5.0 0.00 0.00 0.00 50 1016.3
20260508010351 66 302 0.0 2.0 0.00 0.00 0.00 50 1016.4
20260508005842 65 302 0.0 2.0 0.00 0.00 0.00 52 1016.4
20260508005341 65 302 0.0 4.0 0.00 0.00 0.00 50 1016.4
20260508004841 64 302 0.0 4.0 0.00 0.00 0.00 50 1016.5
20260508004338 65 304 0.0 1.0 0.00 0.00 0.00 49 1016.6
20260508003828 64 304 0.0 1.0 0.00 0.00 0.00 53 1016.6
20260508003317 64 304 0.0 4.0 0.00 0.00 0.00 50 1016.7
20260508002810 64 304 0.0 4.0 0.00 0.00 0.00 50 1016.7
20260508002309 64 338 0.0 2.0 0.00 0.00 0.00 53 1016.8
20260508001809 64 341 0.0 1.0 0.00 0.00 0.00 51 1016.8
20260508001303 63 341 0.0 3.0 0.00 0.00 0.00 51 1016.8
20260508000754 63 341 0.0 3.0 0.00 0.00 0.00 51 1016.9
20260508000254 62 18 0.0 2.0 0.00 0.00 0.00 54 1016.9
20260507235749 62 50 0.0 1.0 0.00 0.00 0.00 52 1016.9
20260507235242 63 86 0.0 3.0 0.00 0.00 0.00 52 1017.0
20260507234739 62 86 0.0 3.0 0.00 0.00 0.00 53 1017.0
20260507234500 62 81 0.0 0.0 0.00 0.00 0.00 52 1016.8
20260507233730 61 81 0.0 0.0 0.00 0.00 0.00 55 1016.7
20260507233450 60 81 0.0 0.0 0.00 0.00 0.00 55 1016.8
20260507232931 60 81 0.0 0.0 0.00 0.00 0.00 56 1016.7
20260507232207 60 81 0.0 0.0 0.00 0.00 0.00 56 1016.8
20260507231703 60 81 0.0 0.0 0.00 0.00 0.00 55 1016.8
20260507231133 59 81 0.0 0.0 0.00 0.00 0.00 55 1016.9
20260507230625 59 81 0.0 0.0 0.00 0.00 0.00 57 1016.9
20260507230110 58 82 0.0 0.0 0.00 0.00 0.00 59 1017.0
20260507225612 58 82 0.0 0.0 0.00 0.00 0.00 59 1016.9
20260507225054 58 82 0.0 0.0 0.00 0.00 0.00 60 1016.9
20260507224553 58 82 0.0 0.0 0.00 0.00 0.00 58 1016.8
20260507224046 57 82 0.0 0.0 0.00 0.00 0.00 59 1016.7
20260507223539 57 82 0.0 0.0 0.00 0.00 0.00 58 1016.6
20260507223033 56 86 0.0 0.0 0.00 0.00 0.00 59 1016.6
20260507222526 56 86 0.0 1.0 0.00 0.00 0.00 61 1016.5
20260507222020 55 86 0.0 1.0 0.00 0.00 0.00 61 1016.6
20260507221520 55 89 0.0 1.0 0.00 0.00 0.00 61 1016.6
20260507221001 55 89 0.0 0.0 0.00 0.00 0.00 62 1016.6
20260507220455 54 89 0.0 0.0 0.00 0.00 0.00 62 1016.5
20260507215953 53 89 0.0 0.0 0.00 0.00 0.00 63 1016.4
20260507215441 53 89 0.0 0.0 0.00 0.00 0.00 65 1016.3
20260507214930 52 89 0.0 0.0 0.00 0.00 0.00 66 1016.4
20260507214408 51 89 0.0 0.0 0.00 0.00 0.00 67 1016.4
20260507213857 50 89 0.0 0.0 0.00 0.00 0.00 69 1016.4
20260507213559 49 89 0.0 0.0 0.00 0.00 0.00 73 1016.3
20260507212829 47 89 0.0 0.0 0.00 0.00 0.00 73 1016.2
20260507212329 47 89 0.0 0.0 0.00 0.00 0.00 73 1016.2
20260507211753 46 89 0.0 0.0 0.00 0.00 0.00 73 1016.3
20260507211241 46 89 0.0 1.0 0.00 0.00 0.00 73 1016.3
20260507210724 46 89 0.0 1.0 0.00 0.00 0.00 73 1016.1
20260507210221 46 161 0.0 0.0 0.00 0.00 0.00 73 1016.2
20260507205709 46 161 0.0 0.0 0.00 0.00 0.00 73 1016.1
20260507205155 46 161 0.0 0.0 0.00 0.00 0.00 72 1016.1
20260507204648 46 161 0.0 0.0 0.00 0.00 0.00 72 1016.1
20260507204359 46 161 0.0 0.0 0.00 0.00 0.00 72 1016.2
20260507203547 46 161 0.0 0.0 0.00 0.00 0.00 72 1016.0
20260507203246 46 161 0.0 0.0 0.00 0.00 0.00 72 1016.0
20260507202513 46 161 0.0 0.0 0.00 0.00 0.00 72 1016.0
20260507202200 46 161 0.0 0.0 0.00 0.00 0.00 72 1016.0
20260507201630 46 161 0.0 0.0 0.00 0.00 0.00 72 1016.0
20260507201517 46 161 0.0 0.0 0.00 0.00 0.00 72 1016.0
20260507200422 46 161 0.0 0.0 0.00 0.00 0.00 72 1016.0
20260507195852 46 161 0.0 0.0 0.00 0.00 0.00 71 1016.0
20260507195342 46 161 0.0 0.0 0.00 0.00 0.00 71 1016.0
20260507194833 46 161 0.0 0.0 0.00 0.00 0.00 71 1016.0
20260507194514 46 161 0.0 0.0 0.00 0.00 0.00 71 1015.9
20260507193736 46 161 0.0 0.0 0.00 0.00 0.00 71 1016.0
20260507193226 46 161 0.0 0.0 0.00 0.00 0.00 71 1015.9
20260507192717 46 161 0.0 0.0 0.00 0.00 0.00 71 1015.9
20260507192434 46 161 0.0 0.0 0.00 0.00 0.00 71 1016.0
20260507191922 46 161 0.0 0.0 0.00 0.00 0.00 71 1016.0
20260507191141 46 161 0.0 0.0 0.00 0.00 0.00 71 1016.0
20260507190632 46 161 0.0 0.0 0.00 0.00 0.00 71 1015.9
20260507190108 46 161 0.0 0.0 0.00 0.00 0.00 71 1016.0
20260507185535 45 161 0.0 0.0 0.00 0.00 0.00 71 1016.0
20260507185036 45 161 0.0 0.0 0.00 0.00 0.00 71 1015.9
20260507184512 45 161 0.0 0.0 0.00 0.00 0.00 71 1015.9
20260507184013 45 161 0.0 0.0 0.00 0.00 0.00 72 1015.9
20260507183426 45 161 0.0 0.0 0.00 0.00 0.00 72 1015.9
20260507182851 45 161 0.0 0.0 0.00 0.00 0.00 72 1015.8
20260507182340 45 161 0.0 0.0 0.00 0.00 0.00 72 1015.8
20260507182314 45 161 0.0 0.0 0.00 0.00 0.00 72 1015.7
20260507181545 45 161 0.0 0.0 0.00 0.00 0.00 72 1015.7
20260507181018 45 161 0.0 0.0 0.00 0.00 0.00 72 1015.7
20260507180440 45 161 0.0 0.0 0.00 0.00 0.00 72 1015.7
20260507175702 45 161 0.0 0.0 0.00 0.00 0.00 72 1015.7
20260507175152 44 161 0.0 0.0 0.00 0.00 0.00 72 1015.7
20260507174642 44 161 0.0 0.0 0.00 0.00 0.00 72 1015.9
20260507174400 44 161 0.0 0.0 0.00 0.00 0.00 72 1015.9
20260507173634 44 161 0.0 0.0 0.00 0.00 0.00 72 1016.0
20260507173134 44 161 0.0 0.0 0.00 0.00 0.00 72 1016.1
20260507172618 44 161 0.0 0.0 0.00 0.00 0.00 71 1016.0
20260507172035 44 161 0.0 0.0 0.00 0.00 0.00 71 1016.0
20260507171522 44 161 0.0 0.0 0.00 0.00 0.00 71 1016.1
20260507171010 45 161 0.0 0.0 0.00 0.00 0.00 71 1016.2
20260507170510 45 161 0.0 0.0 0.00 0.00 0.00 71 1016.2
20260507165956 45 161 0.0 0.0 0.00 0.00 0.00 71 1016.2
20260507165448 45 161 0.0 0.0 0.00 0.00 0.00 71 1016.2
20260507164940 45 161 0.0 0.0 0.00 0.00 0.00 71 1016.2
20260507164438 45 161 0.0 0.0 0.00 0.00 0.00 71 1016.3
20260507163934 45 161 0.0 0.0 0.00 0.00 0.00 71 1016.3
20260507163412 45 161 0.0 0.0 0.00 0.00 0.00 71 1016.4
20260507162908 45 161 0.0 0.0 0.00 0.00 0.00 71 1016.4
20260507162559 45 161 0.0 0.0 0.00 0.00 0.00 71 1016.4
20260507161842 45 161 0.0 0.0 0.00 0.00 0.00 70 1016.5
20260507161339 45 161 0.0 0.0 0.00 0.00 0.00 70 1016.4
20260507161103 45 161 0.0 0.0 0.00 0.00 0.00 70 1016.5
20260507160335 45 161 0.0 0.0 0.00 0.00 0.00 69 1016.6
20260507155832 45 161 0.0 0.0 0.00 0.00 0.00 69 1016.7
20260507155313 45 161 0.0 0.0 0.00 0.00 0.00 68 1016.7
20260507154754 45 161 0.0 0.0 0.00 0.00 0.00 67 1016.7
20260507154230 46 161 0.0 0.0 0.00 0.00 0.00 67 1016.7
20260507153729 46 161 0.0 0.0 0.00 0.00 0.00 66 1016.8
20260507153218 46 161 0.0 0.0 0.00 0.00 0.00 66 1016.8
20260507152701 46 161 0.0 0.0 0.00 0.00 0.00 66 1017.0
20260507152144 46 161 0.0 0.0 0.00 0.00 0.00 66 1017.0
20260507151632 46 161 0.0 0.0 0.00 0.00 0.00 65 1017.0
20260507151112 46 161 0.0 0.0 0.00 0.00 0.00 65 1017.1
20260507150543 47 161 0.0 0.0 0.00 0.00 0.00 65 1017.1
20260507150301 47 161 0.0 0.0 0.00 0.00 0.00 65 1017.1
20260507145543 47 161 0.0 0.0 0.00 0.00 0.00 65 1017.3
20260507145258 47 161 0.0 0.0 0.00 0.00 0.00 65 1017.1
20260507144505 47 161 0.0 0.0 0.00 0.00 0.00 65 1017.4
20260507144002 47 161 0.0 0.0 0.00 0.00 0.00 64 1017.4
20260507143447 47 161 0.0 0.0 0.00 0.00 0.00 64 1017.4
20260507142936 47 161 0.0 0.0 0.00 0.00 0.00 64 1017.5
20260507142359 47 161 0.0 0.0 0.00 0.00 0.00 64 1017.4
20260507141846 47 161 0.0 0.0 0.00 0.00 0.00 64 1017.5
20260507141604 47 161 0.0 0.0 0.00 0.00 0.00 64 1017.5
20260507140838 47 161 0.0 0.0 0.00 0.00 0.00 64 1017.4
20260507140337 47 161 0.0 0.0 0.00 0.00 0.00 64 1017.4
20260507140056 46 161 0.0 0.0 0.00 0.00 0.00 65 1017.4
20260507135327 46 161 0.0 0.0 0.00 0.00 0.00 65 1017.4
20260507134819 47 161 0.0 0.0 0.00 0.00 0.00 65 1017.4
20260507134529 47 161 0.0 0.0 0.00 0.00 0.00 64 1017.4
20260507133746 47 161 0.0 0.0 0.00 0.00 0.00 63 1017.5
20260507133458 47 161 0.0 0.0 0.00 0.00 0.00 62 1017.4
20260507133000 48 161 0.0 0.0 0.00 0.00 0.00 62 1017.4
20260507132239 48 161 0.0 0.0 0.00 0.00 0.00 61 1017.4
20260507131739 48 161 0.0 0.0 0.00 0.00 0.00 60 1017.5
20260507131235 48 161 0.0 0.0 0.00 0.00 0.00 60 1017.5
20260507131139 48 161 0.0 0.0 0.00 0.00 0.00 60 1017.4
20260507130143 49 161 0.0 0.0 0.00 0.00 0.00 59 1017.3
20260507125639 49 161 0.0 0.0 0.00 0.00 0.00 59 1017.1
20260507125129 49 161 0.0 0.0 0.00 0.00 0.00 59 1017.1
20260507124634 49 161 0.0 0.0 0.00 0.00 0.00 58 1017.1
20260507124113 49 161 0.0 0.0 0.00 0.00 0.00 58 1017.0
20260507123614 49 161 0.0 1.0 0.00 0.00 0.00 57 1017.0
20260507123055 50 161 0.0 1.0 0.00 0.00 0.00 56 1017.0
20260507122546 50 161 0.0 0.0 0.00 0.00 0.00 56 1017.0
20260507122038 50 161 0.0 0.0 0.00 0.00 0.00 56 1017.1
20260507121753 50 161 0.0 0.0 0.00 0.00 0.00 56 1017.3
20260507121026 50 161 0.0 0.0 0.00 0.00 0.00 55 1017.5
20260507120958 50 161 0.0 0.0 0.00 0.00 0.00 55 1017.6
20260507120013 50 161 0.0 1.0 0.00 0.00 0.00 54 1017.6
20260507115501 50 161 0.0 1.0 0.00 0.00 0.00 55 1017.5
20260507114951 50 161 0.0 0.0 0.00 0.00 0.00 55 1017.5
20260507114441 51 161 0.0 0.0 0.00 0.00 0.00 54 1017.4
20260507113942 51 161 0.0 1.0 0.00 0.00 0.00 54 1017.5
20260507113442 51 161 0.0 1.0 0.00 0.00 0.00 53 1017.5
20260507112936 51 161 0.0 0.0 0.00 0.00 0.00 53 1017.5
20260507112656 51 161 0.0 1.0 0.00 0.00 0.00 53 1017.6
20260507111913 51 161 0.0 1.0 0.00 0.00 0.00 53 1017.6
20260507111347 51 161 0.0 1.0 0.00 0.00 0.00 53 1017.7
20260507110839 51 161 0.0 0.0 0.00 0.00 0.00 53 1017.6
20260507110324 51 161 0.0 1.0 0.00 0.00 0.00 53 1017.5
20260507105817 51 161 0.0 1.0 0.00 0.00 0.00 52 1017.5
20260507105523 51 161 0.0 1.0 0.00 0.00 0.00 52 1017.4
20260507105000 51 161 0.0 1.0 0.00 0.00 0.00 52 1017.3
20260507104241 51 161 0.0 1.0 0.00 0.00 0.00 52 1017.3
20260507103729 51 161 0.0 0.0 0.00 0.00 0.00 52 1017.3
20260507103210 51 161 0.0 0.0 0.00 0.00 0.00 52 1017.3
20260507102645 51 161 0.0 0.0 0.00 0.00 0.00 52 1017.1
20260507102352 51 161 0.0 0.0 0.00 0.00 0.00 52 1017.0
20260507101617 51 161 0.0 0.0 0.00 0.00 0.00 52 1017.0
20260507101045 51 161 0.0 0.0 0.00 0.00 0.00 51 1016.9
20260507100541 52 161 0.0 0.0 0.00 0.00 0.00 51 1016.8
20260507100251 52 161 0.0 0.0 0.00 0.00 0.00 51 1016.7
20260507095739 51 161 0.0 0.0 0.00 0.00 0.00 53 1016.9
20260507095226 51 161 0.0 0.0 0.00 0.00 0.00 52 1016.8